Content
SEND FEEDBACK

Daily
Averages
Monthly
Summary
Turkmenistan

ASHGABAT, TURKMENISTAN


Home > Asia > Turkmenistan
Elevation: 775 feet     Latitude: 37 58N     Longitude: 058 20E

WEATHER
 
SELECT A DAY
Number of Records: 177,491;   Date Range: 3/15/97 - 9/3/14
 
SHARE

PRINT THIS DATA

[ ← Previous Day ]
WEATHER ALMANAC - OCTOBER 25, 2013
[ Next Day → ]
[ °C ]   °F
Weather ElementAverageHighLow
Temperature48.6 °F57.2 °F (3:00 pm)42.8 °F (8:00 am)
Dewpoint34.2 °F42.8 °F (3:00 am)28.4 °F (4:00 pm)
Humidity57.9 %93 % (3:00 am)24 % (5:00 pm)
Barometer30.41 in30.50 in (8:00 am)30.36 in (3:00 pm)
Wind Speed6.6 mph15.7 mph (1:00 am)
Weather ElementAverage
Visibility6.2 mi
Wind DirectionWSW (238.4 °)

Weather ElementTotal
Precipitation---
Heating Degree Days15 (Base 65)
Averaged from 32 records on October 25, 2013
WEATHER CONDITIONS BREAKOUT
WIND DIRECTION BREAKOUT
WEATHER BY HOUR - OCTOBER 25, 2013
[ °C ]   °F
Local TimeTemperatureDewpointHumidityBarometerVisibilityWind DirectionWind SpeedGust SpeedPrecipitationEventsConditions
1:00 AM50.0 °F37.4 °F62 %30.42 in6.2 miWNW (300°)15.7 mphOvercast
2:00 AM49.0 °F37.0 °F54 %30.45 in6.0 miWNW (290°)13.4 mphRainLight Rain Showers
2:00 AM46.4 °F39.2 °F76 %30.42 in6.2 miWNW (290°)13.4 mphRainLight Rain Showers
3:00 AM44.6 °F42.8 °F93 %30.42 in6.2 miNW (310°)11.2 mphRainLight Rain
4:00 AM44.6 °F42.8 °F93 %30.42 in6.2 miNW (310°)8.9 mphRainLight Rain Showers
5:00 AM45.0 °F41.0 °F82 %30.47 in6.0 miWNW (300°)11.2 mphRainLight Rain Showers
5:00 AM44.6 °F41.0 °F87 %30.42 in6.2 miWNW (300°)11.2 mphOvercast
5:30 AM44.6 °F39.2 °F81 %30.42 in6.2 miWNW (300°)11.2 mphOvercast
6:00 AM44.6 °F39.2 °F81 %30.45 in6.2 miWNW (300°)11.2 mphOvercast
7:00 AM44.6 °F37.4 °F76 %30.45 in6.2 miWNW (300°)8.9 mphMostly Cloudy
8:00 AM43.0 °F36.0 °F69 %30.50 in6.0 miWNW (290°)4.5 mphPartly Cloudy
8:00 AM42.8 °F35.6 °F76 %30.45 in6.2 miWNW (290°)4.5 mphMostly Cloudy
9:00 AM44.6 °F35.6 °F71 %30.45 in6.2 miWNW (300°)8.9 mphMostly Cloudy
10:00 AM46.4 °F32.0 °F57 %30.45 in6.2 miNW (310°)8.9 mphMostly Cloudy
11:00 AM47.0 °F31.0 °F41 %30.48 in6.0 miNorth4.5 mphPartly Cloudy
11:00 AM48.2 °F32.0 °F54 %30.45 in6.2 miNNW (330°)4.5 mphMostly Cloudy
12:00 PM50.0 °F30.2 °F47 %30.45 in6.2 miWNW (300°)4.5 mphMostly Cloudy
1:00 PM53.6 °F32.0 °F44 %30.42 in6.2 miNNE (20°)4.5 mphScattered Clouds
2:00 PM52.0 °F30.0 °F31 %30.41 in6.0 miNNE (30°)2.2 mphScattered Clouds
2:00 PM55.4 °F32.0 °F41 %30.39 in6.2 miVariable2.2 mphScattered Clouds
3:00 PM57.2 °F30.2 °F36 %30.36 in6.2 miVariable2.2 mphPartly Cloudy
4:00 PM57.2 °F28.4 °F33 %30.36 in6.2 miNNW (330°)4.5 mphPartly Cloudy
5:00 PM55.0 °F29.0 °F24 %30.38 in6.0 miNorth (350°)4.5 mphScattered Clouds
5:00 PM55.4 °F28.4 °F36 %30.36 in6.2 miNNW (330°)4.5 mphPartly Cloudy
6:00 PM53.6 °F28.4 °F38 %30.36 in6.2 miNW (320°)6.7 mphScattered Clouds
7:00 PM51.8 °F30.2 °F44 %30.36 in6.2 miNW (310°)2.2 mphPartly Cloudy
8:00 PM49.0 °F33.0 °F42 %30.40 in6.0 miSSW (210°)4.5 mphScattered Clouds
8:00 PM50.0 °F32.0 °F50 %30.36 in6.2 miSSW (210°)4.5 mphPartly Cloudy
9:00 PM48.2 °F32.0 °F54 %30.36 in6.2 miSSW (210°)2.2 mphClear
10:00 PM48.2 °F32.0 °F54 %30.36 in6.2 miWSW (250°)6.7 mphClear
11:00 PM43.0 °F34.0 °F60 %30.42 in6.0 miCalm
11:00 PM44.6 °F33.8 °F66 %30.36 in6.2 miVariable2.2 mphClear
Hourly data recorded from UTAA, located miles away from Ashgabat, Turkmenistan







STORIES FROM OUR PARTNERS